Regional Weather Roundup
Issued by NWS

Home | Current Version | Previous Version | Graphics & Text | Print | Product List | Glossary On
Versions: 1 2 3 4 5 6 7 8 9 10 11 12 13 14 15 16 17 18 19 20 21 22 23 24 25 26 27
000
ASUS45 KBOU 200110
RWRCO

WEATHER ROUNDUP FOR COLORADO
NATIONAL WEATHER SERVICE DENVER/BOULDER CO
700 PM MDT SAT MAY 19 2018

NOTE: "FAIR" INDICATES FEW OR NO CLOUDS BELOW 12000 FEET WITH NO
SIGNIFICANT WEATHER AND/OR OBSTRUCTIONS TO VISIBILITY.

COZ001>005-013-030-031-200200-
...NORTHWEST COLORADO...

CITY           SKY/WX    TMP DP  RH WIND       PRES   REMARKS
CRAIG          LGT RAIN  50  46  86 E15       30.08S
HAYDEN         TSTM      46  43  89 W20G35    30.13R FOG
MEEKER         FAIR      53  40  61 E10       30.05F
RANGELY        FAIR      70  37  29 NE3       29.96S
RABBIT EARS PA MOCLDY    36  32  87 SE6       30.24S THUNDER
STEAMBOAT SPGS PTSUNNY   55  37  50 W8G20     30.09R
WALDEN         PTSUNNY   50  34  53 SE7       30.18S
$$

COZ006>008-011-200200-
...WEST CENTRAL VALLEYS...

CITY           SKY/WX    TMP DP  RH WIND       PRES   REMARKS
GRAND JUNCTION FAIR      73  33  23 N8        29.90F
MONTROSE       FAIR      70  29  21 NW5       29.97F
EAGLE          CLOUDY    52  40  63 E8        30.11R
RIFLE          FAIR      65  43  44 NE5       30.00S
DELTA          FAIR      78  22  12 W12       29.92R
NUCLA          FAIR      75  21  13 W12       29.97S
$$

COZ017>023-064>068-200200-
...SOUTHWEST COLORADO...

CITY           SKY/WX    TMP DP  RH WIND       PRES   REMARKS
DURANGO        FAIR      70  20  15 S5        29.98F
CORTEZ         FAIR      75  13   9 NW16G22   29.94S
PAGOSA SPRINGS FAIR      63  21  19 NW6       30.07S
TELLURIDE      CLOUDY    51  31  46 CALM      30.19R
WOLF CREEK PAS FAIR      41  21  45 SW6       30.35F
$$

COZ009-010-012-014-032>034-037-058>063-200200-
...CENTRAL COLORADO...

CITY           SKY/WX    TMP DP  RH WIND       PRES   REMARKS
ASPEN          PTSUNNY   53  30  41 CALM      30.12R
BUENA VISTA    FAIR      48  40  74 NW5       30.17R
COPPER MTN     SNOW      34  32  93 W5        30.33S VSB<1/4 WCI  30
BERTHOUD PASS  SNOW      27  16  63 NW8       30.34R VSB 1/4 WCI  18
COTTONWOOD PAS PTSUNNY   45  43  93 CALM      30.24R
GUNNISON       LGT RAIN  47  39  74 W28G33    30.16R
GRANBY         FAIR      44  39  80 CALM      30.21R
KREMMLING      PTSUNNY   59  37  44 E15       30.14S
LEADVILLE      CLOUDY    38  36  92 VRB3      30.23S
MONARCH PASS   PTSUNNY   34  32  93 MISG      30.42R
SALIDA         FAIR      56  41  58 E8        30.22S
SUNLIGHT       FAIR      37  32  81 CALM      30.28S
WILKERSON PASS SNOW      32  30  93 SE3       30.33R VSB<1/4
$$

COZ069>075-200200-
...SAN LUIS VALLEY/SANGRE DE CRISTO MOUNTAINS...

CITY           SKY/WX    TMP DP  RH WIND       PRES   REMARKS
ALAMOSA        PTSUNNY   63  24  22 N16G30    30.05R
DEL NORTE      FAIR      61  23  23 W15G21    30.09S
LA VETA PASS   SNOW      36  36 100 NE15G28   30.38R VSB<1/4
SAGUACHE       NOT AVBL
$$

COZ035-036-038>040-200200-
...NORTHERN COLORADO FRONT RANGE...

CITY           SKY/WX    TMP DP  RH WIND       PRES   REMARKS
DENVER INTL AP PTSUNNY   47  41  80 NE15      30.21R
AURORA         CLOUDY    45  43  92 N7        30.22R
FRONT RANGE AP CLOUDY    46  45  93 N13G21    30.22R
ERIE MUNI ARPT CLOUDY    48  42  79 NE5       30.27R
BOULDER MUN AP CLOUDY    46  43  87 CALM      30.21R
CENTENNIAL     CLOUDY    45  40  82 N8        30.21R
BROOMFIELD     LGT RAIN  46  41  81 NW3       30.22R
FORT COLLINS   CLOUDY    49  42  77 NE10      30.21S
LONGMONT       CLOUDY    51  43  75 NE7       30.23R
$$

COZ041-046-047-076>085-087-088-200200-
...PIKES PEAK/PALMER DIVIDE AND SOUTHERN FOOTHILLS...

CITY           SKY/WX    TMP DP  RH WIND       PRES   REMARKS
COLO. SPRINGS  PTSUNNY   47  38  71 N25G36    30.17S
A. F. ACADEMY  LGT RAIN  42  39  88 N21G30    30.20S
SCHRIEVER AFB  NOT AVBL
CHEYENNE MTN   LGT RAIN  43  40  91 N9        30.13R
ELLICOTT         N/A    N/A N/A N/A N24G31    30.15F
FALCON         CLOUDY    43  36  76 N15G25    30.20F
FORT CARSON    FAIR      47  40  74 N16       30.15R
LIMON          CLOUDY    46  41  82 N16       30.19R
MONUMENT HILL  CLOUDY    37  36  93 NW13      30.25R
CANON CITY     CLOUDY    54  46  76 S12       30.14R
WALSENBURG     CLOUDY    50  46  87 N6        30.20R
TRINIDAD       RAIN      50  45  83 N20G26    30.18R
$$

COZ042>045-048>051-090-091-200200-
...NORTHEAST COLORADO...

CITY           SKY/WX    TMP DP  RH WIND       PRES   REMARKS
GREELEY ARPT   LGT RAIN  48  42  80 N8        30.23R
AKRON          CLOUDY    43  42  97 N21G29    30.19R
BURLINGTON     CLOUDY    48  43  82 N20G31    30.14R
WRAY           LGT RAIN  46  46 100 N17G25    30.15R
YUMA           CLOUDY    43  41  93 N15G22    30.17R
STERLING       CLOUDY    45  43  93 N16       30.18R
HOLYOKE        LGT RAIN  46  43  87 N18G28    30.16R
FORT MORGAN    DRIZZLE   46  43  90 N14       30.20R
$$

COZ086-089-092>099-200200-
...SOUTHEAST COLORADO...

CITY           SKY/WX    TMP DP  RH WIND       PRES   REMARKS
PUEBLO         LGT RAIN  52  46  80 N16G31    30.13R
LA JUNTA       RAIN      54  46  74 N20G29    30.15R
LAMAR          FAIR      58  41  53 N14G22    30.08R
SPRINGFIELD      N/A     58  44  60 N16       30.11R
$$




USA.gov is the U.S. government's official web portal to all federal, state and local government web resources and services.